Powrót do katalogu

STARLINK-4362

AktywnyŁącznośćSSO
NORAD 53043·PAYLOAD·🇺🇸 United States

Wystrzelony Jul 11, 2022 z Vandenberg Space Force Base

Loading…

Następne Przeloty (najbliższe 24 godziny)

TLE

ŚwieżeSource: CelesTrak SupGP

Epoka: Sep 14, 2026, 22:10 UTC

1 53043C 22077A   26257.92409722  .00064791  00000+0  20114-2 0  2573
2 53043  97.2852  72.8067 0001410  99.1976 208.0266 15.33404413    10

Śledź STARLINK-4362 w czasie rzeczywistym z AllMySat

Download on the App Store